LiveATC.Net - Listen to live air traffic control over the Internet!


ICAO: 2O3  IATA: 2O3   Airport: Angwin Airport-Parrett Field
City: Angwin   State/Province: California
Country: United States   Continent: North America
KSTS METAR Weather: KSTS 180453Z AUTO 00000KT 10SM CLR 12/08 A3001 RMK AO2 SLP156 T01170078
2O3 Flight Activity (FlightAware)
2O3 Airport Info   (iFlightPlanner)
2O3 VFR Sectional Chart   (iFlightPlanner) 
2O3 IFR Low Chart   (iFlightPlanner) 

2O3 CTAF
Feed Status: UP   Listeners: 0
Listen in your browser - HTML5 player (in browser, HTML5)
Click here to listen with your own player (launches your MP3 player)
Archive Access: 2O3 CTAF
FacilityFrequency
Angwin CTAF123.000

NOTICE

Unauthorized use prohibited. See LiveATC.net Terms of Service


Airport/ARTCC Code
Frequency Search
(e.g., 124.400, 128.75)
Site-wide search
 


Browse LiveATC Feeds
Top 50 LiveATC Feeds
LiveATC Feed Map
Bad Weather Areas

LiveATC FAQ
Offer LiveATC feed
Contact LiveATC.net
Press Inquiries

LiveATC on iPhone
LiveATC on Android

Windows Phone
Windows 8/10

LiveATC Mobile
(Mobile browser)

ATC Audio Archives
Interesting Recordings

LiveATC Forums


Home Page
About LiveATC.net
Make a Donation
Terms of Use
Privacy Policy

Canadian Air Freqs

AIRMETs/SIGMETs

FAA Airport Status
Nat'l Airspace Status
Arrival Demand Charts


Server Software By:
Icecast.org
Liquidsoap